Location: Arroyo de San Miguel
(40.9167°N, 4.6667°W)
Time: 13:59:54
(UTC+00:00)

Cosmos 1842 Rocket - Pass Details

Date: 19 May 2025
Orbit: 600 x 626 km, 82.5° (Epoch: 17 June)

Event Time Altitude Azimuth Distance (km) Brightness Sun altitude
Exits shadow 23:02:49 51° 20° (NNE) 763 4.2 -26.8°
Drops below altitude 10° 23:06:05 10° 10° (N) 1,951 6.9 -27.0°
Sets 23:08:19 0° 10° (N) 2,859 7.9 -27.1°
